(134179) = 2005 CW21

Discovered at Socorro on 2005-02-03 by LINEAR.

Orbit

Orbit type: Main Belt

Note: WebGL enabled browser required.

epoch2023-09-13.0
epoch JD2460200.5
perihelion date2020-10-04.37994
perihelion JD2459126.87994
argument of perihelion (°)214.96668
ascending node (°)280.46964
inclination (°)1.31145
eccentricity0.0187208
perihelion distance (AU)2.9567896
Tisserand w.r.t. Jupiter3.2
ΔV w.r.t. Earth (km/sec)10.6
semimajor axis (AU)3.0131991
mean anomaly (°)202.30784
mean daily motion (°/day)0.18843520
aphelion distance (AU)3.070
period (years)5.23
P-vector [x]-0.71232333
P-vector [y]0.64904116
P-vector [z]0.26709743
Q-vector [x]-0.70149052
Q-vector [y]-0.64618294
Q-vector [z]-0.30059718
absolute magnitude16.06
phase slope0.15
uncertainty0
referenceMPO 777724
observations used417
oppositions19
arc length (days)9559
first opposition used1997
last opposition used2023
residual rms (arc-secs)0.68
perturbers coarse indicatorM-v
perturbers precise indicator003Ek
first observation date used1997-09-06.0
last observation date used2023-11-09.0
computer nameMPCLINUX
JD of orbit computation2456612.835330
perihelion JD uncertainty (days)6.5775E-04
argument of perihelion uncertainty (°)2.3964E-04
ascending node uncertainty (°)2.0638E-04
inclination uncertainty (°)3.9887E-06
eccentricity uncertainty 4.0793E-08
perihelion distance uncertainty (AU)1.2523E-07
Minimum Orbit Intersection Distances (in AU)
for orbit epoch: 2460200.5, reference: E2023-VG7
Mercury2.56022
Venus2.24018
Earth1.9687
Mars1.29813
Jupiter1.91251
Saturn6.0783
Uranus15.4838
Neptune26.8104

Observations

425 total observations over interval: 1997 09 06.90884 – 2023 11 09.138769
These data are available for download (format description).

Date (UT) J2000 RA J2000 Dec Magn Location Ref
1997 09 06.90884 23 22 20.78 -02 05 59.6 21.6 V 910 – Caussols-ODAS MPS 128029
1997 09 06.93324 23 22 19.66 -02 06 06.7 21.5 V 910 – Caussols-ODAS MPS 128029
1997 09 06.95639 23 22 18.59 -02 06 12.8 21.5 V 910 – Caussols-ODAS MPS 128029
2000 03 03.27275 10 38 25.75 +06 46 47.3 18.6   704 – Lincoln Laboratory ETS, New Mexico MPS 128029
2000 03 03.28597 10 38 25.10 +06 46 50.6 18.3   704 – Lincoln Laboratory ETS, New Mexico MPS 128029
2000 03 03.29919 10 38 24.50 +06 46 53.6 18.0   704 – Lincoln Laboratory ETS, New Mexico MPS 128029
2000 03 03.31240 10 38 23.78 +06 46 57.1 18.3   704 – Lincoln Laboratory ETS, New Mexico MPS 128029
2002 08 13.32314 22 14 31.76 -09 22 30.2 21.8 V 291 – LPL/Spacewatch II MPS 128029
2002 08 13.34448 22 14 30.77 -09 22 35.1 21.4 V 291 – LPL/Spacewatch II MPS 128029
2002 08 13.36485 22 14 29.85 -09 22 39.8 21.1 V 291 – LPL/Spacewatch II MPS 128029
2002 08 27.27416 22 03 50.28 -10 17 51.4 20.2 R 644 – Palomar Mountain/NEAT MPS 135607
2002 08 27.33884 22 03 47.17 -10 18 07.1 19.0 R 644 – Palomar Mountain/NEAT MPS 135607
2003 10 20.43416 03 40 44.91 +21 07 27.2 21.4 V 691 – Steward Observatory, Kitt Peak-Spacewatch MPS 128029
2003 10 20.46311 03 40 43.85 +21 07 23.7 21.2 V 691 – Steward Observatory, Kitt Peak-Spacewatch MPS 128029
2003 10 20.49112 03 40 42.84 +21 07 21.1 20.9 V 691 – Steward Observatory, Kitt Peak-Spacewatch MPS 128029
2003 11 21.26138 03 15 43.84 +19 34 45.2 20.3 C 704 – Lincoln Laboratory ETS, New Mexico MPS 291267
2003 11 21.30003 03 15 41.91 +19 34 36.7 19.6 C 704 – Lincoln Laboratory ETS, New Mexico MPS 291267
2003 11 21.31298 03 15 41.20 +19 34 32.7 19.4 C 704 – Lincoln Laboratory ETS, New Mexico MPS 291267
2003 11 29.12110 03 09 20.89 +19 06 44.7 21.4 V 691 – Steward Observatory, Kitt Peak-Spacewatch MPS 128029
2003 11 29.20255 03 09 17.04 +19 06 28.1 21.3 V 691 – Steward Observatory, Kitt Peak-Spacewatch MPS 128029
2003 11 29.22956 03 09 15.74 +19 06 22.2 21.6 V 691 – Steward Observatory, Kitt Peak-Spacewatch MPS 128029
2005 01 17.44362 09 38 50.22 +12 57 30.9 20.6 V 691 – Steward Observatory, Kitt Peak-Spacewatch MPS 128029
2005 01 17.47610 09 38 48.92 +12 57 36.3 20.5 V 691 – Steward Observatory, Kitt Peak-Spacewatch MPS 128029
2005 01 17.50157 09 38 47.90 +12 57 40.3 20.4 V 691 – Steward Observatory, Kitt Peak-Spacewatch MPS 128029
2005 02 03.29203 09 26 06.08 +13 51 59.7 19.5   704 – Lincoln Laboratory ETS, New Mexico MPS 126434
2005 02 03.32208 09 26 04.52 +13 52 04.4 19.9   704 – Lincoln Laboratory ETS, New Mexico MPS 126434
2005 02 03.33453 09 26 03.86 +13 52 08.4 20.5   704 – Lincoln Laboratory ETS, New Mexico MPS 126434
2005 02 03.34695 09 26 03.19 +13 52 11.4 20.2   704 – Lincoln Laboratory ETS, New Mexico MPS 126434
2005 02 04.24648 09 25 18.22 +13 55 25.4 20.3 V 691 – Steward Observatory, Kitt Peak-Spacewatch MPS 126434
2005 02 04.27244 09 25 16.87 +13 55 30.9 20.6 V 691 – Steward Observatory, Kitt Peak-Spacewatch MPS 126434
2005 02 04.30156 09 25 15.37 +13 55 37.5 20.2 V 691 – Steward Observatory, Kitt Peak-Spacewatch MPS 126434
2005 03 04.12002 09 03 58.81 +15 26 32.3 20.8 V 691 – Steward Observatory, Kitt Peak-Spacewatch MPS 128029
2005 03 04.13920 09 03 58.09 +15 26 35.2 20.7 V 691 – Steward Observatory, Kitt Peak-Spacewatch MPS 128029
2005 03 04.15542 09 03 57.49 +15 26 37.7 20.7 V 691 – Steward Observatory, Kitt Peak-Spacewatch MPS 128029
2005 03 10.187767 09 00 48.492 +15 40 03.58 20.81 V 645 – Apache Point-Sloan Digital Sky Survey MPS 389965
2005 03 10.191239 09 00 48.390 +15 40 04.08 21.73   645 – Apache Point-Sloan Digital Sky Survey MPS 389965
2006 04 26.29476 15 01 38.13 -18 51 56.7 20.5 V 691 – Steward Observatory, Kitt Peak-Spacewatch MPS 169921
2006 04 26.31205 15 01 37.33 -18 51 53.5 20.3 V 691 – Steward Observatory, Kitt Peak-Spacewatch MPS 169921
2006 04 26.32933 15 01 36.52 -18 51 50.3 20.2 V 691 – Steward Observatory, Kitt Peak-Spacewatch MPS 169921
2006 05 20.24486 14 42 35.98 -17 23 36.3 20.3 V 691 – Steward Observatory, Kitt Peak-Spacewatch MPS 172040
2006 05 20.26221 14 42 35.28 -17 23 31.8 20.0 V 691 – Steward Observatory, Kitt Peak-Spacewatch MPS 172040
2006 05 20.27956 14 42 34.42 -17 23 28.7 20.3 V 691 – Steward Observatory, Kitt Peak-Spacewatch MPS 172040
2006 06 02.18641 14 34 20.47 -16 39 07.0 20.8 V 691 – Steward Observatory, Kitt Peak-Spacewatch MPS 172878
2006 06 02.20713 14 34 19.79 -16 39 03.5 20.7 V 691 – Steward Observatory, Kitt Peak-Spacewatch MPS 172878
2006 06 02.22446 14 34 19.18 -16 39 00.2 21.1 V 691 – Steward Observatory, Kitt Peak-Spacewatch MPS 172878
2006 06 02.24105 14 34 18.58 -16 38 57.6 19.8 V G96 – Mt. Lemmon Survey MPS 172878
2006 06 02.25061 14 34 18.40 -16 38 56.4 20.2 V G96 – Mt. Lemmon Survey MPS 172878
2006 06 02.26233 14 34 17.94 -16 38 53.7 20.6 V G96 – Mt. Lemmon Survey MPS 172878
2006 06 02.26734 14 34 17.76 -16 38 53.2 20.7 V G96 – Mt. Lemmon Survey MPS 172878
2007 08 12.25719 20 43 45.92 -17 04 59.9 21.2 V 691 – Steward Observatory, Kitt Peak-Spacewatch MPS 213613
2007 08 12.26315 20 43 45.65 -17 05 01.1 21.1 V 691 – Steward Observatory, Kitt Peak-Spacewatch MPS 213613
2007 08 12.26922 20 43 45.37 -17 05 01.7 21.2 V 691 – Steward Observatory, Kitt Peak-Spacewatch MPS 213613
2008 09 26.31030 02 20 17.82 +15 51 53.1   691 – Steward Observatory, Kitt Peak-Spacewatch MPS 257577
2008 09 26.32792 02 20 17.28 +15 51 50.9   691 – Steward Observatory, Kitt Peak-Spacewatch MPS 257577
2008 09 26.34554 02 20 16.72 +15 51 48.7   691 – Steward Observatory, Kitt Peak-Spacewatch MPS 257577
2008 10 02.31217 02 17 01.42 +15 37 04.9 20.4 V 691 – Steward Observatory, Kitt Peak-Spacewatch MPS 258950
2008 10 02.32742 02 17 00.83 +15 37 02.2 20.1 V 691 – Steward Observatory, Kitt Peak-Spacewatch MPS 258950
2008 10 02.34010 02 17 00.38 +15 37 00.2 20.2 V 691 – Steward Observatory, Kitt Peak-Spacewatch MPS 258950
2008 10 26.25289 01 59 18.01 +14 05 58.2 19.7   704 – Lincoln Laboratory ETS, New Mexico MPS 262860
2008 10 26.27600 01 59 16.88 +14 05 50.7 20.3   704 – Lincoln Laboratory ETS, New Mexico MPS 262860
2008 10 26.28749 01 59 16.42 +14 05 46.9 20.3   704 – Lincoln Laboratory ETS, New Mexico MPS 262861
2008 11 06.20816 01 50 43.58 +13 16 31.6 19.9 V G96 – Mt. Lemmon Survey MPS 264425
2008 11 06.21311 01 50 43.33 +13 16 30.2 20.1 V G96 – Mt. Lemmon Survey MPS 264425
2008 11 06.21794 01 50 43.11 +13 16 28.3 20.0 V G96 – Mt. Lemmon Survey MPS 264425
2008 11 06.22279 01 50 42.90 +13 16 27.3 20.1 V G96 – Mt. Lemmon Survey MPS 264425
2008 12 04.19969 01 36 20.05 +11 41 08.7 20.6 V G96 – Mt. Lemmon Survey MPS 268606
2008 12 04.20921 01 36 19.90 +11 41 07.8 20.6 V G96 – Mt. Lemmon Survey MPS 268606
2008 12 04.21881 01 36 19.76 +11 41 06.6 20.5 V G96 – Mt. Lemmon Survey MPS 268606
2008 12 04.22833 01 36 19.65 +11 41 05.5 20.5 V G96 – Mt. Lemmon Survey MPS 268606
2008 12 31.17631 01 38 17.08 +11 35 07.8 21.2 V G96 – Mt. Lemmon Survey MPS 271524
2008 12 31.18630 01 38 17.30 +11 35 08.4 21.1 V G96 – Mt. Lemmon Survey MPS 271524
2008 12 31.19620 01 38 17.52 +11 35 09.6 21.3 V G96 – Mt. Lemmon Survey MPS 271524
2008 12 31.20616 01 38 17.73 +11 35 10.0 21.3 V G96 – Mt. Lemmon Survey MPS 271524
2009 11 16.44890 08 25 06.85 +19 07 35.3 20.9 V G96 – Mt. Lemmon Survey MPS 304485
2009 11 16.45413 08 25 06.92 +19 07 35.4 21.6 V G96 – Mt. Lemmon Survey MPS 304485
2009 11 16.45944 08 25 07.03 +19 07 35.2 21.5 V G96 – Mt. Lemmon Survey MPS 304485
2009 11 16.46463 08 25 07.10 +19 07 34.7 21.4 V G96 – Mt. Lemmon Survey MPS 304485
2009 12 15.43601 08 24 04.71 +18 59 01.7 20.9 V G96 – Mt. Lemmon Survey MPS 308346
2009 12 15.44298 08 24 04.46 +18 59 01.8 20.8 V G96 – Mt. Lemmon Survey MPS 308346
2009 12 15.44999 08 24 04.28 +18 59 02.2 21.8 V G96 – Mt. Lemmon Survey MPS 308346
2009 12 15.45708 08 24 04.14 +18 59 02.8 21.1 V G96 – Mt. Lemmon Survey MPS 308346
2009 12 17.40784 08 23 15.02 +19 00 56.4 20.9 V 691 – Steward Observatory, Kitt Peak-Spacewatch MPS 308346
2009 12 17.42554 08 23 14.50 +19 00 57.5 21.3 V 691 – Steward Observatory, Kitt Peak-Spacewatch MPS 308346
2009 12 17.44326 08 23 14.02 +19 00 58.6 21.4 V 691 – Steward Observatory, Kitt Peak-Spacewatch MPS 308346
2010 01 07.38927 08 09 23.94 +19 36 06.8 20.4 V G96 – Mt. Lemmon Survey MPS 309990
